Regional Weather Roundup
Issued by NWS Northern Indiana

Home | Current Version | Previous Version | Graphics & Text | Print | Product List | Glossary On
Versions: 1 2 3 4 5 6 7 8 9 10 11 12 13 14 15 16 17 18 19 20 21 22 23 24 25 26 27 28 29 30 31 32 33 34 35 36 37 38 39 40 41 42 43 44 45 46 47 48 49 50
000
ASUS43 KIWX 270600
RWRIWX

KIWX WEATHER ROUNDUP
NATIONAL WEATHER SERVICE NORTHERN INDIANA
200 AM EDT FRI MAY 27 2016

NOTE: "FAIR" INDICATES FEW OR NO CLOUDS BELOW 12,000 FEET WITH NO
SIGNIFICANT WEATHER AND/OR OBSTRUCTIONS TO VISIBILITY.

* THESE STATIONS ARE NOT UNDER NWS QUALITY CONTROL. THEY ALSO MAY NOT
  REPORT WEATHER SUCH AS PRECIPITATION OR FOG.

INZ001>027-270700-
NORTHERN INDIANA

CITY           SKY/WX    TMP DP  RH WIND       PRES   REMARKS
SOUTH BEND     CLEAR     69  63  81 SW9       29.93S
6HR MIN TEMP:  69; 6HR MAX TEMP:  80;

GOSHEN         CLOUDY    67  61  81 S7        29.94F
6HR MIN TEMP:  67; 6HR MAX TEMP:  79;

ANGOLA*          N/A     66  59  77 S3        29.95F
FORT WAYNE     CLOUDY    65  61  87 S7        29.96F
6HR MIN TEMP:  65; 6HR MAX TEMP:  79;


$$
INZ028>050-270700-
CENTRAL INDIANA

CITY           SKY/WX    TMP DP  RH WIND       PRES   REMARKS
LAFAYETTE      CLOUDY    65  62  90 S5        29.95S
6HR MIN TEMP:  65; 6HR MAX TEMP:  75;

KOKOMO*        MOCLDY    66  59  77 SW9       29.96S
6HR MIN TEMP:  64; 6HR MAX TEMP:  77;

MUNCIE*        CLOUDY    68  62  81 SW8       29.98F
6HR MIN TEMP:  68; 6HR MAX TEMP:  78;

INDIANAPOLIS   CLOUDY    65  61  87 SW6       29.96
6HR MIN TEMP:  65; 6HR MAX TEMP:  73;


$$
MIZ043>046-050>051-056>058-064>065-071>073-077>080-270700-
SOUTHWEST LOWER MICHIGAN

CITY           SKY/WX    TMP DP  RH WIND       PRES   REMARKS
BATTLE CREEK   CLEAR     65  60  84 SW5       29.93F
6HR MIN TEMP:  63; 6HR MAX TEMP:  79;

BENTON HARBOR  PTCLDY    71  64  78 S5        29.90F
6HR MIN TEMP:  66; 6HR MAX TEMP:  78;

COLDWATER*     CLEAR     67  61  80 SW6       29.94F
6HR MIN TEMP:  65; 6HR MAX TEMP:  80;

HILLSDALE*     CLEAR     66  60  79 S5        29.95F
HOLLAND        PTCLDY    66  61  84 CALM      29.90F
6HR MIN TEMP:  65; 6HR MAX TEMP:  77;

GRAND RAPIDS   PTCLDY    67  62  84 CALM      29.91S
6HR MIN TEMP:  66; 6HR MAX TEMP:  81;

KALAMAZOO      PTCLDY    68  61  78 S5        29.92F
6HR MIN TEMP:  66; 6HR MAX TEMP:  81;

STURGIS*       CLEAR     67  61  82 S7        29.94S
6HR MIN TEMP:  66; 6HR MAX TEMP:  79;

THREE RIVERS*  FAIR      67  61  80 S5        29.93F

$$
OHZ001>008-015>018-024>025-270700-
NORTHWEST OHIO

CITY           SKY/WX    TMP DP  RH WIND       PRES   REMARKS
DEFIANCE       PTCLDY    69  60  73 SW7       29.96F
6HR MIN TEMP:  68; 6HR MAX TEMP:  82;

FINDLAY        CLOUDY    67  59  75 S9        29.97F
6HR MIN TEMP:  67; 6HR MAX TEMP:  80;

TOLEDO EXPRESS CLOUDY    69  62  78 S6        29.95S
6HR MIN TEMP:  69; 6HR MAX TEMP:  81;

TOLEDO METCALF CLOUDY    70  62  76 S9        29.97S
6HR MIN TEMP:  70; 6HR MAX TEMP:  83;

LIMA           PTCLDY    65  61  87 S7        29.99F
6HR MIN TEMP:  65; 6HR MAX TEMP:  78;


$$
AND FOR LAKE MICHIGAN COASTAL AND OPEN LAKE BUOY OBSERVATIONS

STATION/POSITION TEMP    WIND        PRES    VSBY  WAVE
                 AIR SEA DIR/SP/G                  HT/PER
                 (F)     (DEG/KT/KT) (MB)    (MI)  (FT/S)
CALUMET HARBOR    74     180/ 11/ 14 1011.9F
MICHIGAN CITY     72     170/ 12/ 16   N/A
BURNS HARBOR      72     190/ 17/ 20 1012.9F
SAINT JOSEPH      73     140/  2/  8 1013.2F
SOUTH LAKE BUOY   57 50  150/ 10/ 10 1011.5          0
4 MI NW BRIDGMAN  67 63  170/  8/ 10   N/A           0
MICHIGAN CITY     67 59  200/ 10/ 12   N/A           1

$$
&&



USA.gov is the U.S. government's official web portal to all federal, state and local government web resources and services.